This is the latest recevied weather packets stored in our database for station/object OK1FPA-15. If no packets are shown the sender has not sent any weather packets the latest 10 day(s).
| Time | Temp. | Humidity | Pressure | Rain* | Wind** | Luminosity | Snow |
|---|---|---|---|---|---|---|---|
| 1777622848 | 15° C | 47% | 1030.3 hPa | - | - | - | - |
| 1777622248 | 14.44° C | 50% | 1030.4 hPa | - | - | - | - |
| 1777621648 | 13.33° C | 50% | 1030.4 hPa | - | - | - | - |
| 1777621049 | 12.78° C | 55% | 1030.4 hPa | - | - | - | - |
| 1777620448 | 11.67° C | 56% | 1030.5 hPa | - | - | - | - |
| 1777619848 | 10.56° C | 58% | 1030.7 hPa | - | - | - | - |
| 1777619248 | 10° C | 60% | 1030.8 hPa | - | - | - | - |
| 1777618648 | 9.44° C | 61% | 1030.7 hPa | - | - | - | - |
| 1777618049 | 8.89° C | 64% | 1030.7 hPa | - | - | - | - |
| 1777617448 | 7.78° C | 66% | 1030.9 hPa | - | - | - | - |
| 1777616848 | 7.22° C | 69% | 1030.9 hPa | - | - | - | - |
| 1777616249 | 6.11° C | 71% | 1031 hPa | - | - | - | - |
| 1777615648 | 5.56° C | 73% | 1031 hPa | - | - | - | - |
| 1777615048 | 5° C | 73% | 1031 hPa | - | - | - | - |
| 1777614448 | 4.44° C | 75% | 1031 hPa | - | - | - | - |
| 1777613848 | 4.44° C | 75% | 1031.1 hPa | - | - | - | - |
| 1777613248 | 4.44° C | 74% | 1031.1 hPa | - | - | - | - |
| 1777612648 | 4.44° C | 74% | 1031.1 hPa | - | - | - | - |
| 1777612048 | 3.89° C | 75% | 1031.1 hPa | - | - | - | - |
| 1777611448 | 3.89° C | 74% | 1031 hPa | - | - | - | - |
| 1777610848 | 3.89° C | 75% | 1030.9 hPa | - | - | - | - |
| 1777610248 | 3.33° C | 78% | 1030.9 hPa | - | - | - | - |
| 1777609648 | 2.22° C | 80% | 1030.9 hPa | - | - | - | - |
| 1777609049 | 2.22° C | 81% | 1031 hPa | - | - | - | - |
| 1777608448 | 1.67° C | 82% | 1031 hPa | - | - | - | - |
* Rain since midnight (hover to see other rain measurements)
** Current wind speed in m/s (hover to see current wind gust speed)